Preview of NWS' New Version of Forecast
This preview is not operational and should not be used for support decisions.

Regional Weather Roundup (RWR)

Issued by National Weather Service (NWS)

                            
000
ASUS44 KMEG 180400
RWRTN 
TENNESSEE HOURLY STATE WEATHER ROUNDUP
NATIONAL WEATHER SERVICE MEMPHIS TN
1100 PM CDT MON JUN 17 2019

TNZ002-004-019-021-049-052-054-088>092-180500-
WEST TENNESSEE
  
CITY           SKY/WX    TMP DP  RH WIND       PRES   REMARKS
MEMPHIS INTL   MOCLDY    72  70  93 SE5       29.95S                  
NWS MEMPHIS      N/A     71 N/A N/A MISG        N/A                   
JACKSON        FAIR      71  71 100 CALM      29.97F                  
DYERSBURG      FAIR      73  69  87 S6        29.95R                  
$$

TNZ008-025-027-028-033-062-065-066-180500-
NORTH MIDDLE TENNESSEE
  
CITY           SKY/WX    TMP DP  RH WIND       PRES   REMARKS
NASHVILLE      CLOUDY    71  68  90 SE3       30.02F                  
CLARKSVILLE    FAIR      73  68  84 S8        29.98R                  
SMYRNA         MOCLDY    69  68  96 SE3       30.03F                  
CROSSVILLE     CLOUDY    69  67  93 CALM      30.09R                  
$$

TNZ061-075-076-078-094-096-097-180500-
SOUTH MIDDLE TENNESSEE
  
CITY           SKY/WX    TMP DP  RH WIND       PRES   REMARKS
$$

TNZ017-018-042-046-047-180500-
NORTHEAST TENNESSEE
  
CITY           SKY/WX    TMP DP  RH WIND       PRES   REMARKS
TRI CITIES     CLOUDY    68  64  87 CALM      30.09R                  
$$

TNZ012-013-036-069-073-074-180500-
CENTRAL EAST TENNESSEE
  
CITY           SKY/WX    TMP DP  RH WIND       PRES   REMARKS
KNOXVILLE      CLOUDY    73  69  87 E3        30.04R                  
OAK RIDGE      FAIR      73  70  90 CALM      30.05R                  
$$

TNZ083-085-099-180500-
SOUTHEAST TENNESSEE
  
CITY           SKY/WX    TMP DP  RH WIND       PRES   REMARKS
CHATTANOOGA    CLOUDY    75  72  90 CALM      30.03R                  
$$

SKY/WX REPORTED AS FAIR MEANS FEW OR NO CLOUDS BELOW
12 THOUSAND FEET.